[[{"header":{"parameterUnit":"m.s-1","parameterCategory":1,"la1":30.2991,"la2":30.254,"lo1":-89.0895,"lo2":-89.0444,"dx":0.0017,"dy":0.0017,"nx":28,"ny":28,"refTime":"2022-12-16T09:00:00:Z","depth":0,"parameterNumber":2,"parameterNumberName":"U-component_of_WINDS"},"data":[0,0,0,0,0,0,0,0,0,0,0,0,0,0,0,0,0,0,0,0,0,0,0,0,0,0,0,0,0,0,0,0,0,0,0,0,0,0,0,0,0,0,0,0,0,0,0,0,0,0,0,0,0,0,0,0,0,0,-1.1888,-1.1887,0,-1.1859,-1.1858,-1.1858,-1.1811,-1.181,-1.1809,-1.1808,-1.1779,-1.1779,-1.1779,0,0,0,0,0,0,0,0,0,0,0,0,0,-1.1903,-1.1903,-1.1888,-1.1887,-1.1887,-1.1859,-1.1858,-1.1858,-1.1811,-1.181,-1.1809,-1.1808,-1.1779,-1.1779,-1.1779,0,0,0,0,0,0,0,0,0,0,0,0,0,-1.1887,-1.1903,-1.1888,-1.186,-1.1857,-1.1859,-1.1858,-1.1858,-1.1811,-1.181,-1.1809,-1.1807,-1.1779,-1.1779,-1.1779,-1.1806,0,0,-1.1779,-1.1779,0,0,0,0,0,0,0,0,-1.1888,-1.1887,-1.1865,-1.1862,-1.1859,-1.1837,-1.1853,-1.184,-1.1812,-1.1829,-1.1808,-1.1807,-1.18,-1.1798,-1.1795,-1.1804,-1.1803,-1.1779,-1.1779,-1.1779,-1.1779,0,0,0,0,0,0,0,-1.1889,-1.1888,-1.1876,-1.1864,-1.1861,-1.1849,-1.1846,-1.185,-1.1822,-1.1827,-1.1824,-1.1821,-1.1798,-1.1795,-1.1794,-1.1802,-1.1779,-1.1779,-1.1779,-1.1779,-1.1832,-1.1833,0,0,0,0,0,0,-1.1894,-1.1889,-1.1877,-1.1875,-1.1871,-1.185,-1.1846,-1.1845,-1.1822,-1.1817,-1.1822,-1.1819,-1.1796,-1.1794,-1.1793,-1.1823,-1.1779,-1.1779,-1.1779,-1.183,-1.1832,-1.1834,0,0,0,0,0,0,-1.1895,-1.1894,-1.1878,-1.1881,-1.1878,-1.1851,-1.1851,-1.1846,-1.1843,-1.1818,-1.1812,-1.1825,-1.1795,-1.1793,-1.1803,-1.1821,-1.1779,-1.178,-1.1829,-1.1831,-1.1833,-1.1882,0,0,0,0,0,0,-1.1895,-1.1894,-1.1904,-1.1882,-1.1878,-1.1889,-1.1852,-1.1846,-1.1843,-1.1839,-1.1819,-1.1814,-1.1794,-1.1803,-1.1803,-1.182,-1.178,-1.1827,-1.183,-1.1832,-1.1879,-1.1886,-1.1892,0,0,0,0,0,-1.1896,-1.1919,-1.1905,-1.1904,-1.189,-1.189,-1.1888,-1.1864,-1.1845,-1.1855,-1.1838,-1.1815,-1.1819,-1.1804,-1.1804,-1.1822,-1.1826,-1.1829,-1.1832,-1.1876,-1.1884,-1.1891,0,0,0,0,0,0,-1.1944,-1.1916,-1.1899,-1.1916,-1.1906,-1.1882,-1.1893,-1.1873,-1.1868,-1.1864,-1.1834,-1.183,-1.1844,-1.1833,-1.1818,-1.1846,-1.1819,-1.1822,-1.1853,-1.186,-1.1866,-1.1869,-1.178,0,0,0,0,0,-1.1957,-1.1959,-1.1934,-1.1951,-1.1946,-1.1921,-1.192,-1.1902,-1.189,-1.1886,-1.187,-1.186,-1.1859,-1.1859,-1.1856,-1.1877,-1.1872,-1.1889,-1.1895,-1.19,-1.1904,-1.1914,-1.1922,-1.1844,-1.1844,-1.1844,0,0,-1.1983,-1.1967,-1.1971,-1.196,-1.195,-1.1953,-1.1918,-1.1923,-1.1925,-1.1887,-1.1895,-1.1883,-1.187,-1.1885,-1.1891,-1.1877,-1.1924,-1.1904,-1.1909,-1.1909,-1.1918,-1.1926,-1.1932,-1.1846,-1.1845,-1.1845,0,0,-1.2032,-1.202,-1.2033,-1.2024,-1.2009,-1.1992,-1.1995,-1.1974,-1.1965,-1.1973,-1.1945,-1.1947,-1.1945,-1.1937,-1.1932,-1.1978,-1.1957,-1.1978,-1.2012,-1.2022,-1.2029,-1.2034,-1.2051,-1.2057,-1.1981,-1.1981,-1.1981,0,-1.2066,-1.207,-1.2043,-1.2049,-1.2046,-1.2011,-1.2024,-1.2016,-1.2002,-1.2,-1.1984,-1.1982,-1.197,-1.1983,-1.1994,-1.1992,-1.1995,-1.1981,-1.203,-1.2035,-1.204,-1.2056,-1.2062,-1.1984,-1.1984,-1.1984,-1.1983,0,-1.2113,-1.2116,-1.2128,-1.2115,-1.2113,-1.2123,-1.2097,-1.2098,-1.208,-1.2064,-1.2073,-1.2058,-1.2052,-1.2053,-1.2036,-1.2064,-1.2056,-1.2035,-1.2008,-1.205,-1.2065,-1.2071,-1.1988,-1.1987,-1.1986,-1.1986,0,0,-1.2193,-1.2164,-1.2169,-1.2163,-1.2144,-1.2146,-1.2154,-1.2148,-1.2149,-1.214,-1.2147,-1.2146,-1.2127,-1.2122,-1.2103,-1.2112,-1.2151,-1.2091,-1.209,-1.2103,-1.2182,-1.2198,-1.2206,-1.2136,-1.2137,-1.2138,-1.2183,0,-1.2239,-1.2252,-1.2227,-1.2246,-1.2249,-1.2215,-1.2222,-1.2212,-1.2197,-1.2198,-1.2181,-1.2182,-1.2156,-1.2153,-1.2161,-1.2144,-1.2166,-1.2141,-1.2142,-1.2143,-1.2148,-1.2213,-1.2231,-1.2275,-1.2189,-1.219,-1.219,0,-1.2295,-1.2289,-1.2308,-1.2288,-1.2288,-1.2295,-1.2287,-1.2288,-1.2275,-1.2264,-1.2258,-1.2236,-1.2243,-1.2215,-1.2224,-1.2208,-1.2207,-1.2199,-1.22,-1.22,-1.217,-1.2216,-1.2288,-1.2295,-1.2199,-1.2198,-1.2198,0,-1.2352,-1.2348,-1.2359,-1.2355,-1.2331,-1.2337,-1.2328,-1.2313,-1.2312,-1.2305,-1.2303,-1.2298,-1.2295,-1.2291,-1.2268,-1.225,-1.228,-1.225,-1.2272,-1.2272,-1.2281,-1.2281,-1.2354,-1.2278,-1.2278,-1.2278,-1.2278,0,-1.2407,-1.242,-1.2385,-1.2392,-1.2406,-1.2377,-1.2392,-1.2379,-1.2366,-1.237,-1.2341,-1.2345,-1.2313,-1.2314,-1.2296,-1.2307,-1.2306,-1.2297,-1.2292,-1.2301,-1.2302,-1.2301,-1.2297,-1.228,-1.2279,-1.2279,-1.2279,0,-1.2474,-1.2451,-1.2461,-1.2438,-1.2432,-1.2444,-1.2424,-1.243,-1.2413,-1.2418,-1.2418,-1.2392,-1.2392,-1.2368,-1.2362,-1.235,-1.2369,-1.2358,-1.2373,-1.237,-1.2393,-1.2392,-1.247,-1.2479,-1.2396,-1.2397,-1.2398,0,-1.2512,-1.2521,-1.2499,-1.2499,-1.2491,-1.2492,-1.249,-1.2462,-1.2461,-1.2447,-1.2454,-1.2451,-1.2447,-1.2448,-1.2429,-1.2425,-1.2414,-1.2442,-1.2413,-1.2422,-1.2416,-1.2416,-1.2417,-1.2448,-1.2449,-1.245,-1.2451,0,-1.258,-1.2568,-1.2566,-1.256,-1.2558,-1.2552,-1.2544,-1.2546,-1.2515,-1.2515,-1.2515,-1.2512,-1.2506,-1.2504,-1.2496,-1.2486,-1.2464,-1.246,-1.2464,-1.2474,-1.2483,-1.2479,-1.2391,-1.2458,-1.2458,-1.2457,-1.2457,-1.2456,-1.2634,-1.2641,-1.2627,-1.2625,-1.2616,-1.2609,-1.2614,-1.2597,-1.2596,-1.259,-1.2573,-1.2575,-1.2561,-1.2548,-1.2541,-1.2542,-1.2528,-1.2535,-1.2537,-1.2539,-1.2544,-1.2481,-1.254,-1.254,-1.254,-1.2539,-1.2539,0,-1.2702,-1.2691,-1.269,-1.268,-1.2679,-1.2657,-1.2647,-1.2648,-1.265,-1.2639,-1.2636,-1.2635,-1.2633,-1.2613,-1.2608,-1.2613,-1.2603,-1.2613,-1.2613,-1.2611,-1.2556,-1.2553,-1.2622,-1.2622,-1.2622,-1.2622,-1.2622,-1.2622,-1.2738,-1.2749,-1.2735,-1.2741,-1.273,-1.2731,-1.2728,-1.2721,-1.2713,-1.2713,-1.2711,-1.2698,-1.2684,-1.2678,-1.2675,-1.2669,-1.2669,-1.2683,-1.2674,-1.2623,-1.2615,-1.2608,-1.2605,-1.2683,-1.2683,-1.2729,-1.2729,-1.273]},{"header":{"parameterUnit":"m.s-1","parameterCategory":1,"la1":30.2991,"la2":30.254,"lo1":-89.0895,"lo2":-89.0444,"dx":0.0017,"dy":0.0017,"nx":28,"ny":28,"refTime":"2022-12-16T09:00:00:Z","depth":0,"parameterNumber":3,"parameterNumberName":"V-component_of_WINDS"},"data":[0,0,0,0,0,0,0,0,0,0,0,0,0,0,0,0,0,0,0,0,0,0,0,0,0,0,0,0,0,0,0,0,0,0,0,0,0,0,0,0,0,0,0,0,0,0,0,0,0,0,0,0,0,0,0,0,0,0,-1.4252,-1.4253,0,-1.434,-1.4341,-1.4342,-1.4366,-1.4366,-1.4365,-1.4365,-1.4454,-1.4457,-1.4459,0,0,0,0,0,0,0,0,0,0,0,0,0,-1.4101,-1.4104,-1.4252,-1.4253,-1.4254,-1.434,-1.4341,-1.4342,-1.4366,-1.4366,-1.4365,-1.4364,-1.4453,-1.4456,-1.446,0,0,0,0,0,0,0,0,0,0,0,0,0,-1.4176,-1.4105,-1.4251,-1.4276,-1.4279,-1.434,-1.4341,-1.4343,-1.4366,-1.4366,-1.4365,-1.4364,-1.4452,-1.4456,-1.446,-1.4502,0,0,-1.4473,-1.4475,0,0,0,0,0,0,0,0,-1.4172,-1.4181,-1.4271,-1.4274,-1.4278,-1.4341,-1.4321,-1.4396,-1.4367,-1.4333,-1.4365,-1.4364,-1.4417,-1.4424,-1.4442,-1.4506,-1.451,-1.4474,-1.4476,-1.4478,-1.4479,0,0,0,0,0,0,0,-1.4166,-1.4178,-1.4287,-1.4273,-1.4277,-1.4282,-1.4292,-1.4335,-1.4378,-1.4336,-1.4338,-1.4348,-1.4419,-1.4438,-1.4444,-1.4511,-1.4473,-1.4477,-1.448,-1.4482,-1.4614,-1.4615,0,0,0,0,0,0,-1.4157,-1.4173,-1.4284,-1.4289,-1.4222,-1.4286,-1.4296,-1.4322,-1.4378,-1.4386,-1.4349,-1.4349,-1.4431,-1.4439,-1.4448,-1.4501,-1.4478,-1.4482,-1.4484,-1.4613,-1.4615,-1.4616,0,0,0,0,0,0,-1.4154,-1.4167,-1.428,-1.4232,-1.4247,-1.4289,-1.4317,-1.4324,-1.4344,-1.4388,-1.4395,-1.4361,-1.4431,-1.4442,-1.4489,-1.4505,-1.4484,-1.4488,-1.4612,-1.4614,-1.4615,-1.4608,0,0,0,0,0,0,-1.415,-1.4166,-1.4182,-1.4232,-1.4249,-1.432,-1.4318,-1.4326,-1.4351,-1.4352,-1.4401,-1.4408,-1.4431,-1.4482,-1.4493,-1.451,-1.4491,-1.4611,-1.4613,-1.4615,-1.4607,-1.4609,-1.4611,0,0,0,0,0,-1.4144,-1.4176,-1.4183,-1.4196,-1.4271,-1.4321,-1.4331,-1.4357,-1.4352,-1.4369,-1.4397,-1.4407,-1.4501,-1.4487,-1.4499,-1.4518,-1.461,-1.4612,-1.4614,-1.4606,-1.4609,-1.4611,0,0,0,0,0,0,-1.4127,-1.4183,-1.4191,-1.4241,-1.4276,-1.4325,-1.4347,-1.4358,-1.4395,-1.4395,-1.4425,-1.4435,-1.448,-1.4503,-1.4487,-1.4561,-1.4556,-1.456,-1.4545,-1.4548,-1.455,-1.4544,-1.4495,0,0,0,0,0,-1.4129,-1.4165,-1.4212,-1.4251,-1.4269,-1.4305,-1.4327,-1.4344,-1.4382,-1.4397,-1.4428,-1.4464,-1.4501,-1.4526,-1.4563,-1.461,-1.4621,-1.4629,-1.4631,-1.4632,-1.4636,-1.4664,-1.4668,-1.4623,-1.4623,-1.4623,0,0,-1.4133,-1.4169,-1.419,-1.4249,-1.4278,-1.4315,-1.4317,-1.4356,-1.4383,-1.4402,-1.4449,-1.4473,-1.4515,-1.4562,-1.4585,-1.4583,-1.4651,-1.4635,-1.4636,-1.4639,-1.4667,-1.4671,-1.4675,-1.4624,-1.4624,-1.4624,0,0,-1.4161,-1.4191,-1.4227,-1.4256,-1.4301,-1.4325,-1.4333,-1.4381,-1.4398,-1.4445,-1.446,-1.4493,-1.4557,-1.4586,-1.4609,-1.4647,-1.4657,-1.4658,-1.4669,-1.4695,-1.4699,-1.4702,-1.4717,-1.4721,-1.4662,-1.4662,-1.4662,0,-1.4161,-1.4217,-1.4244,-1.4283,-1.4308,-1.4327,-1.4364,-1.4391,-1.4445,-1.4462,-1.4459,-1.454,-1.4569,-1.4624,-1.4634,-1.4651,-1.4662,-1.4654,-1.4696,-1.47,-1.4703,-1.4717,-1.4723,-1.4662,-1.4662,-1.4662,-1.4662,0,-1.4216,-1.4254,-1.4278,-1.4331,-1.4359,-1.4396,-1.4428,-1.4453,-1.4467,-1.4491,-1.4539,-1.4575,-1.462,-1.4633,-1.4647,-1.4691,-1.4688,-1.469,-1.4685,-1.4707,-1.4721,-1.4727,-1.4662,-1.4662,-1.4662,-1.4662,0,0,-1.4236,-1.4303,-1.4311,-1.4336,-1.4386,-1.4416,-1.4454,-1.4498,-1.452,-1.4555,-1.4588,-1.4642,-1.4644,-1.467,-1.4687,-1.471,-1.4739,-1.471,-1.4711,-1.4715,-1.479,-1.4789,-1.4795,-1.4746,-1.4747,-1.4748,-1.4787,0,-1.4271,-1.434,-1.4365,-1.4422,-1.4459,-1.4477,-1.451,-1.4544,-1.4567,-1.4601,-1.4626,-1.4664,-1.4664,-1.468,-1.4703,-1.4731,-1.4755,-1.4728,-1.4777,-1.4778,-1.4768,-1.4803,-1.4802,-1.4838,-1.4792,-1.4793,-1.4794,0,-1.4321,-1.4359,-1.442,-1.4466,-1.4482,-1.4511,-1.4554,-1.4586,-1.4625,-1.464,-1.4669,-1.4685,-1.4725,-1.4716,-1.4771,-1.4753,-1.4774,-1.479,-1.4792,-1.4799,-1.4789,-1.4812,-1.485,-1.4855,-1.4803,-1.4802,-1.4801,0,-1.4331,-1.4397,-1.4442,-1.4462,-1.4517,-1.4537,-1.4561,-1.4599,-1.4624,-1.4661,-1.4678,-1.4718,-1.4741,-1.4772,-1.4798,-1.4789,-1.4851,-1.4844,-1.4865,-1.4865,-1.4879,-1.4878,-1.4922,-1.489,-1.489,-1.4889,-1.4889,0,-1.4369,-1.4405,-1.4448,-1.4476,-1.4518,-1.4545,-1.4586,-1.461,-1.4644,-1.4677,-1.4694,-1.4724,-1.4756,-1.479,-1.481,-1.4854,-1.4863,-1.4877,-1.4882,-1.4876,-1.4875,-1.4892,-1.489,-1.4891,-1.4891,-1.489,-1.489,0,-1.4388,-1.4418,-1.4469,-1.4516,-1.4529,-1.4558,-1.4598,-1.4626,-1.4649,-1.469,-1.4701,-1.4738,-1.4779,-1.4808,-1.486,-1.4874,-1.4921,-1.4925,-1.4909,-1.4911,-1.4931,-1.493,-1.4989,-1.4999,-1.4958,-1.4959,-1.4959,0,-1.4411,-1.444,-1.449,-1.4514,-1.4538,-1.4575,-1.4601,-1.4629,-1.4655,-1.4702,-1.4724,-1.4766,-1.4802,-1.4866,-1.4897,-1.4938,-1.4944,-1.4962,-1.495,-1.4944,-1.4946,-1.4945,-1.4948,-1.4964,-1.4965,-1.4965,-1.4965,0,-1.4448,-1.4462,-1.4499,-1.4541,-1.4572,-1.4607,-1.4641,-1.4659,-1.4693,-1.4722,-1.4764,-1.4792,-1.4846,-1.4888,-1.4931,-1.4954,-1.4966,-1.4968,-1.4975,-1.4971,-1.4961,-1.4968,-1.4915,-1.4967,-1.4967,-1.4967,-1.4967,-1.4967,-1.4471,-1.4498,-1.4538,-1.4579,-1.4608,-1.464,-1.4669,-1.4696,-1.4732,-1.4779,-1.4793,-1.4837,-1.4875,-1.4934,-1.4958,-1.4993,-1.4992,-1.5002,-1.5005,-1.5007,-1.5008,-1.4953,-1.5001,-1.5001,-1.5001,-1.5001,-1.5001,0,-1.4511,-1.4537,-1.4575,-1.4623,-1.4655,-1.4663,-1.4702,-1.4728,-1.4767,-1.4802,-1.4836,-1.4885,-1.4926,-1.496,-1.5002,-1.5023,-1.503,-1.5034,-1.5033,-1.5039,-1.5006,-1.4996,-1.5028,-1.5028,-1.5028,-1.5028,-1.5028,-1.5028,-1.4535,-1.4582,-1.46,-1.4661,-1.4687,-1.4731,-1.4753,-1.4782,-1.481,-1.4864,-1.4899,-1.4921,-1.4955,-1.4999,-1.5037,-1.5046,-1.5061,-1.5064,-1.5074,-1.5044,-1.5041,-1.5038,-1.5029,-1.5067,-1.5067,-1.5104,-1.5105,-1.5105]}]]